Location: Betzi
(47.2343°N, 9.5260°E)
Time: 23:28:58
(UTC+00:00)

NPP - Pass Details

Date: 27 May 2022
Orbit: 826 x 828 km, 98.7° (Epoch: 26 June)

Event Time Altitude Azimuth Distance (km) Brightness Sun altitude
Rises 01:29:59 0° 12° (NNE) 3,378 8.3 -15.4°
Reaches altitude 10° 01:32:21 10° 11° (N) 2,441 7.2 -15.2°
Maximum altitude 01:37:43 73° 288° (WNW) 869 3.7 -14.7°
Enters shadow 01:41:22 21° 207° (SSW) 1,771 4.7 -14.4°
